Regional Weather Roundup
Issued by NWS Green Bay, WI

Home | Current Version | Previous Version | Text Only | Print | Product List | Glossary On
Versions: 1 2 3 4 5 6 7 8 9 10 11 12 13 14 15 16 17 18 19 20 21 22 23 24 25 26 27 28 29 30 31 32 33 34 35 36 37 38 39 40 41 42 43 44 45 46 47 48 49 50
000
ASUS43 KGRB 291311
RWRGRB

NORTH-CENTRAL AND NORTHEAST WISCONSIN REGIONAL WEATHER ROUNDUP
NATIONAL WEATHER SERVICE GREEN BAY WI
800 AM CDT FRI APR 29 2016

WIZ005-009-010>012-018-019-291400-
NORTH CENTRAL WISCONSIN

CITY           SKY/WX    TMP DP  RH WIND       PRES   REMARKS
IRONWOOD       SUNNY     34  30  86 CALM      30.14S
MANITOWISH WTR CLOUDY    38  35  88 CALM      30.14S
ARBOR VITAE    CLOUDY    42  37  85 N7        30.13F
EAGLE RIVER    MOSUNNY   40  32  74 N7        30.14S
LAND O LAKES   CLOUDY    40  34  77 N7        30.15S
RHINELANDER    CLOUDY    42  36  79 VRB5      30.14R
PHILLIPS       CLOUDY    38  35  87 CALM      30.14S
ANTIGO         CLOUDY    38  36  92 N10       30.14R
TOMAHAWK       CLOUDY    38  37  94 CALM      30.15R
MERRILL        CLOUDY    40  38  95 NE3       30.15S
$$

WIZ013-073-291400-
NORTHEAST WISCONSIN

CITY           SKY/WX    TMP DP  RH WIND       PRES   REMARKS
IRON MOUNTAIN  CLOUDY    42  27  55 N7        30.14R
MARINETTE      CLOUDY    41  28  60 NE6       30.15R
OCONTO         CLOUDY    41  32  69 NE6       30.14R
$$

WIZ017-030-035>037-045-291400-
CENTRAL WISCONSIN

CITY           SKY/WX    TMP DP  RH WIND       PRES   REMARKS
MEDFORD        CLOUDY    38  38  98 CALM      30.13S
WAUSAU         CLOUDY    42  36  79 N3        30.13R
MOSINEE        CLOUDY    37  37 100 NE3       30.15R
MARSHFIELD     CLOUDY    41  36  82 NE6       30.13R
WISC RAPIDS    CLOUDY    41  35  79 NE8       30.15R
STEVENS POINT  CLOUDY    37  36  93 N5        30.15R
WAUPACA        CLOUDY    42  36  79 N6        30.14R
SHAWANO        CLOUDY    42  36  79 N7        30.15R
CLINTONVILLE   CLOUDY    41  34  75 N6        30.14R
WAUTOMA        NOT AVBL
$$

WIZ038-039-048-051-291400-
FOX VALLEY

CITY           SKY/WX    TMP DP  RH WIND       PRES   REMARKS
NWS GREEN BAY  CLOUDY    43  34  70 N9        30.14R
APPLETON       CLOUDY    39  32  75 N8        30.11R
OSHKOSH        CLOUDY    42  34  73 N10       30.12R
FOND DU LAC    CLOUDY    42  36  79 NE10      30.12R
$$

WIZ022-050-052-291400-
EAST CENTRAL WISCONSIN

CITY           SKY/WX    TMP DP  RH WIND       PRES   REMARKS
EPHRAIM        CLOUDY    41  33  72 NE3       30.13R
STURGEON BAY   CLOUDY    41  32  70 NE5       30.16R
MANITOWOC      CLOUDY    39  36  89 CALM      30.13R
SHEBOYGAN      CLOUDY    39  35  86 N5        30.12R
$$

LMZ563-521-522-541>543-291400-
LAKESHORE

STATION/POSITION TIME  TEMP    WIND        PRES    VSBY  WAVE
                       AIR SEA DIR/SP/G                  HT/PER
                 (UTC) (F)     (DEG/KT/KT) (MB)    (MI)  (FT/S)
SHEBOYGAN LKSHOR 1300   39      10/  9/ 11 1020.9R
KEWAUNEE LKSHORE 1200   41     360/  3/  6 1019.2R
ALGOMA MARINA    1245           50/ 11/ 13   N/A
NORTHPORT PIER   1200   41      30/  8/ 11 1020.0R
N MID LAKE BUOY  1250   39 38   60/  4/  6 1020.9R         1
CHAMBERS ISLAND  1200   40      10/ 11/ 13 1020.3R
MENOMINEE LKSHOR 1200   41     350/  8/ 11 1019.1R
$$




USA.gov is the U.S. government's official web portal to all federal, state and local government web resources and services.